Wind_Speed
13 14 15 16 17 18 19 20 21 22 23 24 25 26 26 25 25 25 25 24 23 23 22 21 20 19 18 18 17 16 15 15 14 15 15 16 17 19 21 24 25 26 28
15 16 17 18 19 19 20 21 22 23 24 25 26 27 27 27 27 27 27 26 26 25 24 23 21 20 19 19 18 18 17 17 16 17 17 18 18 19 21 23 25 27 28
17 18 19 20 21 22 22 23 24 25 26 27 28 29 28 28 29 29 28 28 27 26 24 23 22 21 20 20 20 20 19 19 19 19 19 20 21 21 22 24 26 28 29
19 20 21 22 22 23 24 25 26 27 28 28 29 30 30 30 31 30 30 29 28 26 25 24 23 22 21 21 21 21 21 21 21 21 22 22 23 23 24 25 26 29 30
20 21 23 24 24 25 26 27 27 28 30 30 31 32 32 32 32 31 30 29 27 27 26 26 25 24 24 24 24 23 23 23 24 24 24 25 25 26 26 27 28 30 31
22 24 25 25 26 27 28 29 29 30 31 32 33 33 33 33 32 31 30 29 28 28 28 27 27 26 26 27 27 27 26 26 26 26 26 27 28 29 29 30 30 31 33
25 26 26 27 28 29 29 30 31 32 32 33 34 35 34 34 33 32 30 29 29 29 29 29 29 29 28 28 29 30 30 30 30 30 30 30 31 31 32 33 33 34 34
27 28 28 29 29 30 31 32 32 33 34 34 35 36 36 35 34 33 32 31 31 31 32 32 31 30 30 30 31 32 33 33 33 33 33 33 33 34 35 35 35 36 37
29 30 30 31 31 32 32 33 34 34 35 36 36 37 36 36 35 34 34 34 34 34 35 34 33 32 32 33 34 35 35 36 36 36 36 36 36 36 36 36 36 37 38
30 31 31 32 33 33 34 35 36 37 37 38 38 38 37 37 37 36 36 36 36 36 37 37 36 35 35 35 35 36 37 38 38 39 38 38 38 38 39 38 38 38 39
32 33 33 34 35 35 36 37 38 39 39 40 40 40 39 39 38 38 38 38 39 39 39 39 39 38 37 37 37 38 39 40 40 40 39 39 39 40 40 41 41 41 40
34 34 35 36 36 37 38 39 40 40 40 41 41 42 41 41 40 40 40 40 41 42 43 42 41 40 39 39 40 40 41 41 42 42 41 40 40 40 40 41 42 43 42
36 36 37 38 39 40 40 41 41 42 42 42 43 43 43 43 42 42 42 43 44 45 45 44 43 42 41 41 42 42 42 42 42 43 43 42 41 41 41 41 41 42 43
38 39 39 40 41 42 43 43 44 44 44 44 45 45 45 45 44 44 44 45 46 47 46 45 44 44 43 43 43 43 43 43 43 43 43 43 42 41 42 42 41 41 42
40 41 42 43 44 44 45 45 46 46 46 46 46 46 46 46 46 46 46 47 47 47 46 45 45 44 44 44 44 44 43 43 42 43 43 43 42 41 41 42 41 41 42
42 43 43 44 45 45 46 46 47 48 48 48 48 48 48 48 48 48 48 48 48 47 47 46 45 45 44 45 45 44 44 43 42 41 42 42 42 41 41 41 42 41 41
44 44 45 45 46 46 47 47 48 48 49 49 49 50 50 50 50 50 49 48 48 47 47 47 46 45 45 45 45 44 43 42 41 41 40 40 41 41 41 40 41 41 41
45 46 46 46 47 47 48 49 49 50 50 50 51 51 51 50 50 50 50 49 48 48 48 47 47 46 45 45 44 43 42 41 41 40 40 39 40 40 40 40 40 40 41
46 47 47 47 48 48 49 51 51 52 52 52 52 52 52 52 51 50 50 50 49 49 48 48 47 46 45 45 44 43 42 41 40 40 40 39 39 40 40 39 40 40 40
48 48 48 49 49 50 52 52 53 53 53 53 53 53 53 53 52 51 51 51 50 49 48 47 46 45 45 45 44 43 42 41 40 39 39 38 38 39 39 39 39 40 40
49 50 50 51 52 53 53 54 55 55 54 54 54 55 55 55 53 53 52 51 51 49 48 47 46 46 45 44 43 42 41 40 39 39 38 38 38 38 38 38 38 39 39
51 51 52 53 54 54 55 56 56 56 56 56 55 56 56 55 54 54 53 52 51 50 49 48 46 45 44 44 42 41 41 40 39 38 37 37 37 37 36 36 36 38 38
52 53 54 54 55 56 56 57 57 56 56 57 57 57 56 56 55 54 53 52 50 49 48 48 46 44 43 43 42 41 40 39 38 37 36 37 37 37 36 36 36 37 38
53 54 55 55 56 57 58 58 58 58 58 58 58 57 57 56 55 54 53 52 50 48 48 47 46 44 43 42 41 40 39 39 38 37 36 36 36 36 36 36 36 37 38
55 56 56 57 58 58 59 59 59 59 59 58 58 57 56 55 55 53 52 50 49 48 48 47 46 44 43 42 41 39 39 39 39 38 36 36 36 35 35 34 35 36 36
57 57 57 57 58 59 59 59 58 58 58 57 57 56 55 53 53 52 51 49 48 48 47 46 45 44 42 41 40 39 39 38 37 37 36 35 35 34 34 33 35 36 36
Wind_Direction
297 303 307 310 314 316 319 321 322 323 325 325 326 327 326 325 324 323 322 321 318 315 311 308 305 301 298 296 294 292 289 285 280 275 269 258 251 247 242 239 237 236 236
298 302 305 308 310 313 314 316 318 320 321 322 323 324 323 323 323 322 321 320 317 314 309 304 301 296 292 290 288 287 285 283 279 275 272 265 258 253 249 244 243 240 239
298 300 303 305 307 309 311 313 315 316 318 319 321 322 322 322 321 320 319 318 315 312 307 302 297 293 288 286 285 284 283 282 279 276 273 269 264 259 256 250 246 242 242
296 298 301 304 306 308 310 312 313 315 317 318 320 321 321 320 320 319 317 316 314 311 306 301 297 291 286 284 282 281 280 280 279 277 274 270 267 263 259 254 250 246 244
296 298 301 302 304 306 309 311 312 314 315 317 318 319 319 319 318 317 316 314 312 309 306 302 297 291 285 282 281 279 279 278 278 277 275 272 269 266 263 258 255 250 247
296 299 301 302 303 305 307 308 310 311 312 314 316 317 317 316 316 315 314 313 311 308 306 303 298 293 287 284 281 279 278 277 276 276 275 273 270 267 265 262 258 255 252
296 298 300 301 303 305 306 307 308 310 311 313 314 315 315 314 313 313 311 310 309 308 307 303 298 293 288 284 282 279 278 278 277 275 275 274 271 268 266 263 260 257 254
296 298 299 301 302 304 306 307 308 309 311 312 313 314 314 313 311 310 308 307 306 305 305 303 299 294 289 286 283 281 279 277 277 275 274 273 271 269 266 264 261 257 254
297 298 299 299 300 302 304 306 308 309 310 311 311 312 312 312 310 307 305 304 305 304 303 302 299 294 292 291 287 283 279 276 275 274 274 272 271 269 267 265 262 258 255
297 297 298 298 299 301 303 304 306 308 309 309 310 310 309 309 309 305 303 303 304 304 303 302 299 295 293 292 289 285 282 278 276 274 273 272 270 268 266 263 261 257 255
296 296 297 298 299 301 302 304 305 307 308 308 309 309 308 307 307 305 302 302 303 303 303 301 297 294 293 292 290 289 285 282 278 276 274 270 269 267 264 261 259 256 253
295 296 297 298 299 300 302 303 305 306 307 307 307 308 307 306 305 304 303 302 302 303 302 300 296 292 292 291 290 289 287 284 280 277 274 270 268 266 263 260 258 256 254
295 296 297 298 299 300 301 302 304 305 305 306 306 306 306 305 304 303 303 303 302 302 301 299 295 292 291 291 290 288 287 284 281 278 275 271 268 265 261 258 258 256 252
295 296 296 297 298 299 300 302 303 303 304 304 305 305 306 305 304 303 303 303 303 301 299 296 293 291 291 290 289 288 287 285 281 278 275 271 266 263 259 258 257 255 252
295 296 296 297 298 299 300 301 302 302 303 303 304 304 305 305 304 304 303 302 303 301 298 295 293 291 290 290 289 288 287 285 282 278 275 271 266 263 259 256 255 255 252
295 296 296 297 298 298 299 300 301 302 302 302 303 303 304 304 304 304 303 303 302 302 299 297 294 293 291 290 289 288 287 285 282 279 276 273 268 263 260 258 255 254 251
296 296 297 297 297 298 299 300 301 301 302 302 302 302 303 303 303 304 303 303 302 301 300 298 296 295 292 290 289 287 286 284 282 279 276 272 267 263 261 258 255 253 250
295 296 297 297 297 298 299 300 301 301 301 301 301 302 302 302 303 303 303 302 302 301 300 299 297 296 293 290 288 286 284 282 280 278 275 271 267 263 260 258 255 252 249
294 295 296 296 297 298 299 300 300 301 301 301 301 301 301 301 301 302 302 302 301 301 300 299 298 296 294 291 288 284 283 281 278 277 273 270 266 261 258 256 254 251 249
293 294 295 295 296 297 298 299 300 300 301 301 300 301 301 301 300 301 300 300 300 300 299 299 297 296 294 291 289 285 282 280 277 275 271 269 265 260 257 255 251 249 248
292 293 294 295 296 297 297 298 299 300 300 300 300 301 301 300 300 300 300 299 299 298 298 297 297 296 294 292 289 285 281 278 276 274 271 267 262 259 257 254 249 246 245
291 292 293 294 295 296 297 298 299 299 300 300 300 301 300 299 299 300 299 298 297 296 296 296 296 295 293 291 288 283 279 276 275 273 269 265 261 258 257 252 248 247 244
292 292 293 294 295 295 296 297 298 299 299 300 300 301 300 298 298 298 297 297 296 295 294 294 293 293 291 289 287 284 279 275 273 271 267 262 259 256 253 250 247 245 240
292 292 293 293 294 295 296 297 298 299 299 300 300 300 299 298 298 297 296 295 295 294 293 292 291 291 289 287 286 283 279 274 272 269 265 262 258 255 251 248 246 243 238
292 293 294 294 295 295 296 297 298 298 299 299 299 299 298 298 297 296 295 294 292 293 293 292 290 289 288 285 283 280 278 274 270 266 262 260 257 253 250 246 242 239 235
292 293 294 295 295 296 297 297 298 298 299 299 299 299 298 298 298 297 295 293 292 293 293 292 290 288 286 284 281 279 277 274 269 265 260 257 255 250 246 242 239 235 233
Height
5859 5858 5856 5855 5853 5851 5849 5847 5844 5841 5838 5835 5832 5828 5824 5820 5816 5813 5809 5806 5803 5800 5798 5797 5796 5795 5795 5795 5794 5794 5795 5795 5795 5795 5795 5796 5797 5798 5800 5803 5805 5808 5810
5855 5854 5853 5851 5849 5847 5845 5842 5840 5837 5834 5831 5827 5823 5819 5815 5811 5807 5803 5800 5797 5794 5792 5790 5789 5789 5789 5789 5789 5789 5790 5790 5790 5791 5791 5791 5792 5793 5795 5797 5799 5802 5804
5851 5850 5849 5847 5845 5843 5840 5838 5835 5832 5829 5825 5822 5818 5813 5809 5805 5801 5797 5794 5790 5787 5785 5783 5782 5782 5782 5782 5783 5783 5784 5784 5784 5785 5785 5786 5786 5788 5789 5791 5792 5795 5797
5847 5846 5844 5842 5840 5838 5835 5832 5829 5826 5823 5820 5816 5811 5807 5803 5799 5794 5790 5786 5783 5780 5778 5776 5776 5775 5775 5776 5776 5776 5777 5777 5778 5778 5779 5779 5780 5781 5782 5784 5785 5788 5790
5842 5841 5839 5837 5834 5832 5829 5826 5823 5820 5817 5813 5809 5805 5800 5796 5792 5787 5783 5779 5776 5774 5771 5770 5768 5768 5768 5768 5769 5769 5770 5770 5771 5771 5771 5772 5773 5774 5775 5776 5777 5779 5781
5837 5835 5833 5831 5828 5826 5823 5820 5817 5813 5810 5806 5802 5798 5793 5789 5784 5780 5776 5773 5770 5767 5765 5763 5761 5760 5760 5760 5760 5761 5761 5762 5762 5763 5763 5764 5765 5765 5766 5767 5769 5770 5773
5831 5829 5827 5824 5821 5818 5815 5812 5809 5806 5802 5798 5794 5790 5785 5781 5777 5773 5769 5766 5763 5760 5758 5756 5754 5752 5751 5751 5751 5752 5752 5752 5752 5753 5754 5754 5755 5756 5756 5757 5758 5760 5762
5824 5822 5819 5817 5814 5811 5808 5805 5801 5798 5794 5790 5786 5782 5777 5773 5768 5764 5761 5759 5756 5753 5750 5747 5745 5743 5742 5742 5741 5741 5741 5741 5741 5742 5742 5743 5743 5744 5745 5746 5747 5749 5751
5817 5814 5812 5809 5806 5803 5800 5797 5793 5790 5786 5782 5777 5773 5768 5764 5760 5756 5752 5750 5747 5744 5741 5738 5735 5734 5732 5731 5730 5730 5729 5729 5729 5729 5729 5729 5730 5730 5731 5733 5734 5736 5739
5809 5806 5804 5801 5798 5795 5792 5789 5785 5781 5777 5773 5768 5764 5759 5755 5750 5746 5743 5741 5738 5735 5732 5728 5725 5723 5721 5719 5718 5717 5717 5716 5716 5716 5716 5716 5716 5717 5717 5718 5720 5722 5724
5801 5798 5795 5792 5789 5786 5783 5780 5776 5772 5768 5763 5759 5754 5750 5745 5741 5737 5733 5730 5728 5724 5721 5717 5714 5711 5709 5707 5705 5704 5702 5702 5702 5701 5701 5701 5701 5702 5703 5704 5705 5707 5710
5792 5789 5786 5783 5780 5777 5773 5770 5766 5762 5758 5753 5749 5744 5739 5735 5731 5726 5723 5719 5716 5713 5709 5705 5702 5699 5696 5694 5692 5690 5688 5687 5686 5686 5686 5686 5686 5687 5687 5689 5690 5692 5695
5783 5780 5777 5773 5770 5767 5763 5759 5755 5751 5747 5743 5738 5734 5729 5724 5720 5716 5712 5708 5704 5700 5696 5692 5689 5686 5683 5681 5679 5676 5674 5672 5671 5671 5671 5671 5671 5671 5672 5674 5675 5677 5681
5773 5770 5766 5763 5760 5756 5752 5748 5744 5740 5735 5731 5727 5722 5717 5713 5708 5704 5700 5695 5691 5686 5682 5679 5675 5672 5670 5667 5664 5662 5659 5657 5655 5655 5655 5655 5655 5657 5658 5659 5661 5663 5667
5762 5759 5755 5752 5748 5744 5740 5736 5731 5727 5722 5718 5714 5709 5705 5701 5696 5691 5686 5682 5677 5673 5668 5665 5661 5659 5656 5653 5650 5647 5644 5642 5640 5639 5639 5639 5640 5641 5643 5645 5647 5650 5653
5751 5747 5744 5740 5736 5732 5728 5724 5719 5714 5709 5704 5700 5696 5691 5686 5682 5677 5672 5667 5662 5658 5654 5650 5647 5644 5641 5639 5636 5633 5630 5628 5625 5624 5624 5624 5625 5626 5629 5631 5633 5636 5639
5739 5735 5732 5728 5723 5719 5715 5711 5707 5702 5696 5691 5686 5681 5677 5672 5667 5662 5657 5653 5648 5643 5639 5636 5633 5629 5626 5623 5621 5618 5616 5614 5611 5610 5609 5610 5610 5612 5613 5616 5619 5622 5625
5727 5723 5719 5715 5711 5707 5702 5697 5692 5688 5683 5678 5673 5667 5662 5657 5652 5647 5642 5638 5634 5629 5625 5621 5618 5614 5611 5608 5606 5603 5601 5599 5598 5596 5595 5596 5596 5597 5599 5602 5605 5608 5612
5714 5710 5706 5702 5697 5693 5688 5684 5679 5674 5669 5664 5659 5654 5648 5643 5638 5633 5628 5623 5619 5615 5611 5607 5603 5600 5596 5593 5590 5588 5586 5585 5583 5582 5581 5581 5582 5583 5585 5588 5591 5594 5597
5700 5696 5692 5688 5684 5679 5674 5669 5664 5659 5654 5649 5644 5639 5634 5629 5624 5619 5614 5609 5604 5600 5596 5592 5588 5585 5581 5578 5575 5573 5571 5570 5569 5568 5567 5568 5568 5569 5571 5574 5576 5580 5584
5686 5682 5678 5674 5669 5665 5660 5655 5649 5644 5639 5635 5629 5624 5618 5613 5608 5604 5599 5594 5589 5585 5581 5577 5574 5570 5566 5563 5560 5558 5557 5556 5555 5554 5553 5554 5555 5556 5558 5560 5563 5567 5571
5672 5668 5663 5659 5654 5650 5645 5639 5634 5629 5624 5619 5614 5609 5603 5597 5592 5588 5583 5578 5574 5570 5566 5562 5559 5555 5552 5549 5546 5544 5543 5542 5541 5540 5540 5540 5541 5543 5544 5547 5550 5554 5558
5656 5652 5648 5644 5639 5634 5629 5624 5619 5614 5609 5603 5598 5593 5587 5581 5577 5572 5567 5563 5558 5554 5551 5547 5544 5541 5538 5534 5532 5530 5529 5528 5527 5527 5527 5528 5529 5530 5532 5535 5538 5542 5546
5641 5636 5632 5628 5623 5618 5613 5608 5603 5597 5592 5587 5581 5576 5571 5565 5560 5556 5551 5547 5543 5539 5535 5532 5529 5526 5523 5520 5518 5516 5515 5514 5514 5513 5514 5515 5517 5518 5521 5524 5527 5530 5534
5625 5620 5616 5611 5606 5601 5597 5591 5586 5581 5575 5570 5564 5559 5554 5549 5544 5539 5535 5531 5527 5524 5520 5517 5514 5511 5509 5506 5504 5503 5502 5501 5500 5500 5501 5502 5504 5507 5509 5512 5515 5519 5524
5608 5603 5599 5594 5589 5584 5579 5574 5569 5564 5559 5553 5548 5542 5537 5532 5528 5523 5519 5515 5511 5508 5505 5502 5499 5497 5494 5492 5491 5489 5488 5488 5487 5487 5488 5490 5492 5495 5498 5501 5505 5509 5514